sat.trackr.live / text

‹ back to catalog

STARLINK-5237

NORAD 54196 · 2022-141AR

PAYLOAD ACTIVE UNKNOWN

§ Identity

Operator
Country
US
Launch date
2022-10-28
Launch site
AFWTR
Launch vehicle
Mass (kg)
RCS (m²)

Purposes: comms

External: N2YO · Heavens-Above · Gunter

§ Orbital elements

Epoch: 2026-09-20T11:49:47.254656Z

Period
93.79 min
Inclination
53.1589°
Eccentricity
0.0001321
Mean motion
15.35398738 rev/d
Perigee alt
458.8 km
Apogee alt
460.6 km
Semi-major
6,837.9 km
B*
2.6932e-5
RAAN
187.9319°
Arg perigee
94.2154°
Mean anomaly
265.9001°
Rev number
21,556

§ Raw data

STARLINK-52371 54196U 22141AR  26263.49290804  .00000559  00000+0  26932-4 0  99942 54196  53.1589 187.9319 0001321  94.2154 265.9001 15.35398738215562

JSON: /api/v1/satellites/54196 · /tle

For live sub-satellite position, see the globe view (requires WebGL).

§ Visibility from observer

Set your observer location to see the next 7 days of passes ≥ 10°. The values pass through the URL so the page stays shareable.

No JS? Fill the form by hand. The geolocation button needs JavaScript.